N308NR KMSN-KISW

Flight info

Callsign N308NR
Flight time N/A
Altitude 3000
Route C47 KDLL KVOK ILS27 63C KISW
Aircraft C182/L-VGDW/C

Departure

Time 2026-04-25 01:21
Airport Dane County Regional Truax Field (KMSN)

Arrival

Time N/A
Airport Alexander Field South Wood County Airport (KISW)
Time Latitude Longitude Altitude Speed Heading
2026-04-25 01:16 43.12518 -89.34516 863 ft 0 kts 118°
2026-04-25 01:18 43.12516 -89.34509 863 ft 6 kts 119°
2026-04-25 01:18 43.12463 -89.34404 855 ft 16 kts 99°
2026-04-25 01:19 43.12461 -89.34317 863 ft 0 kts 92°
2026-04-25 01:20 43.12475 -89.34221 859 ft 18 kts 36°
2026-04-25 01:20 43.12729 -89.34204 867 ft 62 kts
2026-04-25 01:20 43.13291 -89.34176 957 ft 92 kts
2026-04-25 01:21 43.13940 -89.34173 1291 ft 89 kts 359°
2026-04-25 01:21 43.14615 -89.34177 1444 ft 101 kts 357°
2026-04-25 01:21 43.15346 -89.34171 1675 ft 105 kts 357°
2026-04-25 01:21 43.16068 -89.34237 1924 ft 107 kts 352°
2026-04-25 01:22 43.16828 -89.34370 2107 ft 113 kts 352°
2026-04-25 01:22 43.17611 -89.34474 2318 ft 114 kts 350°
2026-04-25 01:22 43.18392 -89.34654 2409 ft 121 kts 351°
2026-04-25 01:22 43.19213 -89.34807 2579 ft 123 kts 353°
2026-04-25 01:23 43.20104 -89.34841 2561 ft 132 kts 357°
2026-04-25 01:23 43.21045 -89.34855 2561 ft 137 kts 357°
2026-04-25 01:23 43.21991 -89.34886 2561 ft 134 kts 357°
2026-04-25 01:23 43.22913 -89.34921 2557 ft 131 kts 356°
2026-04-25 01:24 43.23806 -89.35017 2549 ft 127 kts 348°
2026-04-25 01:24 43.24673 -89.35254 2549 ft 127 kts 347°
2026-04-25 01:24 43.25545 -89.35488 2546 ft 127 kts 346°
2026-04-25 01:24 43.26387 -89.35804 2549 ft 127 kts 343°
2026-04-25 01:25 43.27243 -89.36137 2549 ft 128 kts 344°
2026-04-25 01:25 43.28102 -89.36464 2552 ft 128 kts 344°
2026-04-25 01:25 43.28959 -89.36795 2549 ft 128 kts 344°
2026-04-25 01:25 43.29810 -89.37135 2551 ft 127 kts 343°
2026-04-25 01:26 43.30663 -89.37462 2545 ft 128 kts 344°
2026-04-25 01:26 43.31517 -89.37797 2550 ft 128 kts 343°
2026-04-25 01:26 43.32376 -89.38126 2548 ft 129 kts 345°
2026-04-25 01:26 43.33240 -89.38466 2547 ft 129 kts 344°
2026-04-25 01:27 43.34102 -89.38810 2548 ft 129 kts 344°
2026-04-25 01:27 43.34972 -89.39140 2547 ft 130 kts 344°
2026-04-25 01:27 43.35827 -89.39463 2541 ft 128 kts 344°
2026-04-25 01:28 43.37570 -89.40107 2547 ft 129 kts 344°
2026-04-25 01:28 43.38436 -89.40431 2548 ft 129 kts 345°
2026-04-25 01:28 43.39268 -89.40856 2540 ft 128 kts 328°
2026-04-25 01:28 43.39992 -89.41556 2541 ft 126 kts 326°
2026-04-25 01:29 43.40720 -89.42243 2543 ft 128 kts 326°
2026-04-25 01:29 43.41452 -89.42932 2550 ft 127 kts 326°
2026-04-25 01:29 43.42177 -89.43635 2556 ft 127 kts 326°
2026-04-25 01:29 43.42903 -89.44344 2555 ft 128 kts 325°
2026-04-25 01:30 43.43633 -89.45039 2560 ft 127 kts 326°
2026-04-25 01:30 43.44363 -89.45735 2561 ft 128 kts 326°
2026-04-25 01:30 43.45085 -89.46429 2561 ft 125 kts 326°
2026-04-25 01:30 43.45792 -89.47114 2560 ft 124 kts 326°
2026-04-25 01:31 43.46502 -89.47744 2552 ft 121 kts 338°
2026-04-25 01:31 43.47332 -89.47949 2563 ft 119 kts 348°
2026-04-25 01:31 43.48131 -89.48183 2560 ft 120 kts 346°
2026-04-25 01:31 43.48949 -89.48329 2580 ft 115 kts 359°
2026-04-25 01:32 43.49715 -89.48262 2382 ft 109 kts
2026-04-25 01:32 43.50440 -89.48159 2191 ft 100 kts
2026-04-25 01:32 43.51111 -89.48141 2006 ft 93 kts 357°
2026-04-25 01:32 43.51732 -89.48157 1815 ft 87 kts 356°
2026-04-25 01:33 43.52327 -89.48166 1667 ft 83 kts 358°
2026-04-25 01:33 43.52911 -89.48178 1552 ft 85 kts 356°
2026-04-25 01:33 43.53500 -89.48192 1446 ft 81 kts 358°
2026-04-25 01:33 43.54080 -89.48214 1244 ft 81 kts 356°
2026-04-25 01:34 43.54636 -89.48233 1116 ft 78 kts 356°
2026-04-25 01:34 43.54993 -89.48253 1063 ft 79 kts 358°
2026-04-25 01:34 43.55535 -89.48283 891 ft 77 kts 356°
2026-04-25 01:34 43.56017 -89.48304 828 ft 52 kts 358°
2026-04-25 01:35 43.56153 -89.48315 825 ft 5 kts 179°
2026-04-25 01:35 43.56069 -89.48309 828 ft 19 kts 179°
2026-04-25 01:35 43.55894 -89.48301 827 ft 28 kts 177°
2026-04-25 01:35 43.55714 -89.48290 833 ft 21 kts 176°
2026-04-25 01:36 43.55593 -89.48272 832 ft 15 kts 171°
2026-04-25 01:36 43.55599 -89.48286 832 ft 18 kts 358°
2026-04-25 01:36 43.55922 -89.48300 827 ft 73 kts 357°
2026-04-25 01:36 43.56512 -89.48339 1011 ft 89 kts 355°
2026-04-25 01:37 43.57131 -89.48449 1324 ft 94 kts 348°
2026-04-25 01:37 43.57746 -89.48701 1656 ft 91 kts 339°
2026-04-25 01:37 43.58332 -89.49078 1935 ft 98 kts 335°
2026-04-25 01:37 43.58943 -89.49555 2139 ft 103 kts 323°
2026-04-25 01:38 43.59167 -89.50523 2151 ft 126 kts 259°
2026-04-25 01:38 43.58928 -89.51635 2275 ft 119 kts 281°
2026-04-25 01:38 43.59105 -89.52724 2397 ft 117 kts 288°
2026-04-25 01:38 43.59268 -89.53825 2553 ft 117 kts 284°
2026-04-25 01:39 43.59343 -89.54934 2763 ft 112 kts 278°
2026-04-25 01:39 43.59345 -89.55982 2877 ft 109 kts 275°
2026-04-25 01:39 43.59337 -89.57011 3004 ft 104 kts 278°
2026-04-25 01:39 43.59447 -89.57966 3133 ft 100 kts 291°
2026-04-25 01:40 43.59707 -89.58861 3197 ft 101 kts 304°
2026-04-25 01:40 43.60208 -89.59481 3333 ft 93 kts 335°
2026-04-25 01:40 43.60833 -89.59487 3395 ft 100 kts 26°
2026-04-25 01:40 43.61385 -89.58765 3313 ft 117 kts 46°
2026-04-25 01:41 43.61885 -89.57864 3421 ft 120 kts 46°
2026-04-25 01:41 43.62450 -89.56938 3460 ft 134 kts 44°
2026-04-25 01:41 43.63082 -89.55951 3549 ft 137 kts 42°
2026-04-25 01:41 43.63740 -89.54974 3596 ft 142 kts 42°
2026-04-25 01:42 43.64427 -89.53961 3609 ft 146 kts 42°
2026-04-25 01:42 43.65130 -89.52926 3608 ft 149 kts 42°
2026-04-25 01:42 43.65841 -89.51881 3609 ft 149 kts 42°
2026-04-25 01:42 43.66557 -89.50834 3606 ft 150 kts 42°
2026-04-25 01:43 43.67271 -89.49805 3606 ft 149 kts 38°
2026-04-25 01:43 43.68197 -89.49335 3594 ft 142 kts 359°
2026-04-25 01:43 43.69186 -89.49361 3597 ft 143 kts 357°
2026-04-25 01:43 43.70183 -89.49377 3601 ft 143 kts 357°
2026-04-25 01:44 43.71180 -89.49395 3600 ft 144 kts 357°
2026-04-25 01:44 43.72178 -89.49416 3598 ft 143 kts 357°
2026-04-25 01:44 43.73179 -89.49444 3584 ft 145 kts 357°
2026-04-25 01:44 43.74205 -89.49463 3486 ft 148 kts 360°
2026-04-25 01:45 43.75147 -89.48889 3376 ft 157 kts 43°
2026-04-25 01:45 43.75512 -89.47437 3262 ft 167 kts 85°
2026-04-25 01:45 43.75438 -89.45848 3168 ft 168 kts 89°
2026-04-25 01:45 43.75349 -89.44235 3068 ft 168 kts 90°
2026-04-25 01:46 43.75261 -89.42623 2969 ft 168 kts 90°
2026-04-25 01:46 43.75177 -89.41013 2865 ft 168 kts 89°
2026-04-25 01:46 43.75085 -89.39406 2763 ft 167 kts 90°
2026-04-25 01:46 43.74990 -89.37809 2664 ft 167 kts 90°
2026-04-25 01:47 43.74901 -89.36211 2564 ft 166 kts 90°
2026-04-25 01:47 43.74814 -89.34610 2458 ft 166 kts 90°
2026-04-25 01:47 43.74728 -89.33013 2358 ft 166 kts 90°
2026-04-25 01:47 43.74644 -89.31443 2344 ft 162 kts 90°
2026-04-25 01:48 43.74560 -89.29905 2341 ft 160 kts 90°
2026-04-25 01:48 43.74475 -89.28370 2338 ft 159 kts 90°
2026-04-25 01:48 43.74389 -89.26853 2333 ft 158 kts 90°
2026-04-25 01:48 43.74309 -89.25334 2334 ft 158 kts 90°
2026-04-25 01:49 43.74225 -89.23814 2332 ft 158 kts 89°
2026-04-25 01:49 43.74139 -89.22313 2331 ft 159 kts 90°
2026-04-25 01:49 43.74054 -89.20794 2336 ft 159 kts 90°
2026-04-25 01:49 43.73970 -89.19264 2334 ft 159 kts 90°
2026-04-25 01:50 43.73881 -89.17733 2336 ft 160 kts 89°
2026-04-25 01:50 43.73792 -89.16199 2336 ft 160 kts 90°
2026-04-25 01:50 43.73823 -89.14694 2333 ft 154 kts 71°
2026-04-25 01:50 43.74115 -89.13274 2328 ft 154 kts 69°
2026-04-25 01:51 43.74408 -89.11846 2331 ft 154 kts 69°
2026-04-25 01:51 43.74702 -89.10424 2331 ft 154 kts 69°
2026-04-25 01:51 43.74993 -89.09019 2335 ft 154 kts 69°
2026-04-25 01:51 43.75288 -89.07598 2338 ft 154 kts 69°
2026-04-25 01:52 43.75580 -89.06175 2338 ft 154 kts 69°
2026-04-25 01:52 43.75907 -89.04773 2338 ft 152 kts 63°
2026-04-25 01:52 43.76316 -89.03423 2331 ft 152 kts 62°
2026-04-25 01:52 43.76728 -89.02078 2330 ft 152 kts 61°
2026-04-25 01:53 43.77136 -89.00739 2339 ft 151 kts 62°
2026-04-25 01:53 43.77579 -88.99422 2332 ft 150 kts 57°
2026-04-25 01:53 43.78074 -88.98147 2337 ft 150 kts 57°
2026-04-25 01:53 43.78576 -88.96875 2338 ft 150 kts 56°
2026-04-25 01:54 43.79079 -88.95604 2339 ft 151 kts 57°
2026-04-25 01:54 43.79588 -88.94336 2343 ft 151 kts 57°
2026-04-25 01:54 43.80098 -88.93056 2342 ft 151 kts 56°
2026-04-25 01:54 43.80596 -88.91798 2342 ft 151 kts 57°
2026-04-25 01:55 43.81111 -88.90511 2341 ft 151 kts 56°
2026-04-25 01:55 43.81613 -88.89236 2340 ft 151 kts 57°
2026-04-25 01:55 43.82118 -88.87961 2341 ft 151 kts 56°
2026-04-25 01:55 43.82616 -88.86691 2335 ft 151 kts 57°
2026-04-25 01:56 43.83151 -88.85449 2339 ft 150 kts 51°
2026-04-25 01:56 43.83746 -88.84257 2338 ft 150 kts 51°
2026-04-25 01:56 43.84337 -88.83071 2335 ft 149 kts 50°
2026-04-25 01:56 43.84926 -88.81887 2336 ft 149 kts 50°
2026-04-25 01:57 43.86102 -88.79534 2335 ft 148 kts 50°
2026-04-25 01:57 43.86687 -88.78357 2332 ft 148 kts 51°
2026-04-25 01:57 43.87284 -88.77191 2337 ft 148 kts 49°
2026-04-25 01:58 43.87970 -88.76144 2337 ft 146 kts 41°
2026-04-25 01:58 43.88691 -88.75171 2333 ft 147 kts 40°
2026-04-25 01:58 43.89419 -88.74182 2332 ft 146 kts 40°
2026-04-25 01:58 43.90152 -88.73210 2334 ft 145 kts 38°
2026-04-25 01:59 43.90917 -88.72297 2330 ft 145 kts 37°
2026-04-25 01:59 43.91693 -88.71399 2335 ft 146 kts 36°
2026-04-25 01:59 43.92472 -88.70494 2329 ft 146 kts 36°
2026-04-25 01:59 43.93297 -88.69696 2334 ft 144 kts 28°
2026-04-25 02:00 43.94154 -88.68968 2329 ft 144 kts 28°
2026-04-25 02:00 43.95011 -88.68238 2351 ft 145 kts 27°
2026-04-25 02:00 43.95864 -88.67495 2350 ft 145 kts 28°
2026-04-25 02:00 43.96667 -88.66648 2348 ft 147 kts 43°
2026-04-25 02:01 43.97301 -88.65533 2356 ft 148 kts 48°
2026-04-25 02:01 43.97921 -88.64379 2358 ft 150 kts 52°
2026-04-25 02:01 43.98455 -88.63208 2423 ft 135 kts 54°
2026-04-25 02:01 43.98848 -88.62235 2407 ft 104 kts 54°
2026-04-25 02:02 43.99193 -88.61400 2230 ft 94 kts 50°
2026-04-25 02:02 43.99504 -88.60620 2083 ft 91 kts 55°
2026-04-25 02:02 43.99773 -88.59844 1976 ft 87 kts 59°
2026-04-25 02:02 43.99983 -88.59041 1801 ft 89 kts 67°
2026-04-25 02:03 44.00117 -88.58238 1697 ft 85 kts 81°
2026-04-25 02:03 44.00137 -88.57387 1667 ft 91 kts 91°
2026-04-25 02:03 44.00133 -88.56536 1785 ft 87 kts 87°
2026-04-25 02:03 44.00120 -88.55708 1869 ft 87 kts 86°
2026-04-25 02:04 44.00117 -88.54868 1799 ft 81 kts 88°
2026-04-25 02:04 43.99929 -88.54143 1632 ft 84 kts 139°
2026-04-25 02:04 43.99349 -88.53904 1352 ft 91 kts 211°
2026-04-25 02:04 43.99138 -88.54660 956 ft 88 kts 279°
2026-04-25 02:05 43.99151 -88.55458 791 ft 73 kts 271°
2026-04-25 02:05 43.99161 -88.56071 788 ft 55 kts 270°
2026-04-25 02:05 43.99163 -88.56465 793 ft 31 kts 274°
2026-04-25 02:05 43.99179 -88.56638 795 ft 5 kts 17°
2026-04-25 02:06 43.99232 -88.56621 795 ft 8 kts 358°
2026-04-25 02:06 43.99257 -88.56622 796 ft 0 kts
2026-04-25 02:06 43.99259 -88.56622 796 ft 0 kts 356°
2026-04-25 02:13 43.99281 -88.56618 796 ft 8 kts 28°
2026-04-25 02:13 43.99285 -88.56594 789 ft 0 kts 77°